Meteo Giornale » Osservazioni meteo Spagna » Teruel
ore: 16:30 - Osservazioni Meteo Teruel
Lat. 40° 25' N Lon. 1° 13' W Alt. 1020 metri s.l.m.
29 °C
Sereno
Temp. 24 Ore
15 °C
30 °C
Sud/Sud-Est
31.5 Km/h
Dew point 13 °C
Umidità 37 %
Visibilità 10 Km
Il sole sorge alle ore 07:32
Il sole tramonta alle ore 20:37
| Data e Ora | Cielo e Fenomeni | T °C | DP °C | Um. % | Pres. hPa | Vis. km | Vento km/h | |
|---|---|---|---|---|---|---|---|---|
| Oggi h: 16:30 | Sereno | 29 | 13 | 37 | 1022 | 10 | S/SE 31.5 | |
| Oggi h: 16:00 | Sereno | 28 | 13 | 39 | 1022 | 10 | S 37 | |
| Oggi h: 15:30 | Sereno | 28 | 13 | 39 | 1022 | 10 | S 27.8 | |
| Oggi h: 15:00 | Sereno | 28 | 13 | 39 | 1022 | 9 | S/SE 31.5 | |
| Oggi h: 14:30 | Sereno | 28 | 13 | 39 | 1022 | 10 | SE 29.6 | |
| Oggi h: 14:00 | Sereno | 26 | 13 | 44 | 1023 | 10 | S/SE 29.6 | |
| Oggi h: 13:30 | Sereno | 27 | 14 | 44 | 1023 | 10 | S/SE 29.6 | |
| Oggi h: 13:00 | Sereno | 25 | 14 | 50 | 1024 | 10 | S/SE 31.5 | |
| Oggi h: 12:30 | Sereno | 24 | 14 | 53 | 1024 | 10 | S/SE 25.9 | |
| Oggi h: 12:00 | Sereno | 23 | 14 | 56 | 1024 | 10 | SE 25.9 | |
| Oggi h: 11:30 | Sereno | 22 | 14 | 60 | 1024 | 10 | SE 25.9 | |
| Oggi h: 11:00 | Sereno | 21 | 15 | 68 | 1024 | 10 | S/SE 24 | |
| Oggi h: 10:30 | Sereno | 20 | 15 | 72 | 1024 | 10 | SE 20.3 | |
| Oggi h: 10:00 | Sereno | 19 | 14 | 72 | 1023 | 10 | SE 14.8 | |
| Oggi h: 09:30 | Sereno | 19 | 15 | 77 | 1023 | 10 | SE 13 | |
| Oggi h: 09:00 | Sereno | 18 | 15 | 82 | 1023 | 10 | SE 13 | |
| Oggi h: 08:30 | Poco Nuvoloso | 17 | 15 | 88 | 1023 | 10 | SE 9.3 | |
| Oggi h: 08:00 | Poco Nuvoloso | 16 | 15 | 93 | 1023 | 10 | SE 11.1 | |
| Oggi h: 07:30 | Sereno | 15 | 14 | 93 | 1023 | 10 | S/SE 11.1 | |
| Oggi h: 07:00 | Sereno | 15 | 15 | 100 | 1023 | 10 | SE 13 | |
| Oggi h: 06:30 | Sereno | 15 | 14 | 93 | 1023 | 10 | E/SE 9.3 | |
| Oggi h: 06:00 | Sereno | 16 | 15 | 93 | 1023 | 10 | S 9.3 | |
| Oggi h: 05:30 | Sereno | 16 | 15 | 93 | 1023 | 10 | S 13 | |
| Oggi h: 05:00 | Sereno | 17 | 14 | 82 | 1023 | 10 | S 14.8 | |
| Oggi h: 04:30 | Sereno | 17 | 14 | 82 | 1024 | 10 | S 14.8 | |
| Oggi h: 04:00 | Sereno | 17 | 15 | 88 | 1024 | 10 | S/SE 13 | |
| Oggi h: 03:30 | Sereno | 17 | 15 | 88 | 1024 | 10 | SE 14.8 | |
| Oggi h: 03:00 | Sereno | 17 | 15 | 88 | 1024 | 10 | SE 16.7 | |
| Oggi h: 02:30 | Sereno | 18 | 15 | 82 | 1024 | 10 | SE 16.7 | |
| Oggi h: 02:00 | Sereno | 18 | 14 | 77 | 1024 | 10 | E/SE 18.5 | |
| Oggi h: 01:30 | Sereno | 18 | 14 | 77 | 1024 | 10 | E/SE 16.7 | |
| Oggi h: 01:00 | Sereno | 18 | 14 | 77 | 1024 | 10 | SE 13 | |
| Oggi h: 00:30 | Sereno | 19 | 14 | 72 | 1024 | 10 | E/SE 13 | |
| Oggi h: 00:00 | Sereno | 19 | 14 | 72 | 1024 | 10 | SE 14.8 | |
| Ieri h: 23:30 | Sereno | 20 | 14 | 68 | 1024 | 10 | E/SE 11.1 | |
| Ieri h: 23:00 | Pioggia | 21 | 14 | 64 | 1023 | 7 | SE 16.7 | |
| Ieri h: 22:30 | Pioggia | 21 | 15 | 68 | 1023 | 9 | SE 16.7 | |
| Ieri h: 22:00 | Pioggia | 22 | 15 | 64 | 1023 | 10 | E/SE 14.8 | |
| Ieri h: 21:30 | Pioggia | 23 | 15 | 60 | 1022 | 9 | S/SE 20.3 | |
| Ieri h: 21:00 | Pioggia | 24 | 15 | 57 | 1021 | 10 | E/SE 18.5 | |
| Ieri h: 20:30 | Pioggia | 25 | 15 | 53 | 1021 | 10 | E/SE 20.3 | |
| Ieri h: 20:00 | Pioggia | 26 | 15 | 50 | 1021 | 10 | E/SE 27.8 | |
| Ieri h: 19:30 | Pioggia | 28 | 15 | 45 | 1020 | 10 | E/SE 33.3 | |
| Ieri h: 19:00 | Pioggia | 28 | 15 | 45 | 1020 | 10 | E/SE 37 | |
| Ieri h: 18:30 | Pioggia | 29 | 15 | 42 | 1020 | 8 | SE 35.2 | |
| Ieri h: 18:00 | Pioggia | 30 | 14 | 37 | 1020 | 5 | SE 31.5 | |



